Weather Roundup
Issued by NWS Chicago, IL

Home | Current Version | Previous Version | Text Only | Print | Product List | Glossary On
Versions: 1 2 3 4 5 6 7 8 9 10 11 12 13 14 15 16 17 18 19 20 21 22 23 24 25 26 27 28 29 30 31 32 33 34 35 36 37 38 39 40 41 42 43 44 45 46 47 48 49 50
000
NZUS59 KLOT 131208
HRRLOT

CHICAGO AREA WEATHER ROUNDUP
NATIONAL WEATHER SERVICE CHICAGO/ROMEOVILLE IL
600 AM CST WED DEC 13 2017

NOTE: "FAIR" INDICATES FEW OR NO CLOUDS BELOW 12,000 FEET WITH NO
SIGNIFICANT WEATHER AND/OR OBSTRUCTIONS TO VISIBILITY.

* THESE STATIONS ARE NOT UNDER NWS QUALITY CONTROL. THEY ALSO MAY NOT
  REPORT WEATHER SUCH AS PRECIPITATION OR FOG.

ILZ005-006-012>014-019>023-131300-
NORTHEAST ILLINOIS

CITY           SKY/WX    TMP DP  RH WIND       PRES   REMARKS
OHARE          CLOUDY    25  12  58 S12       29.68F WCI  14
6HR MIN TEMP:  22; 6HR MAX TEMP:  25;

MIDWAY         CLOUDY    26  11  52 S12       29.70F WCI  16
6HR MIN TEMP:  22; 6HR MAX TEMP:  26;

AURORA         CLOUDY    25  14  63 SE13      29.66F WCI  14
6HR MIN TEMP:  20; 6HR MAX TEMP:  25;

LANSING*       CLOUDY    25  13  60 S14       29.74F WCI  13
JOLIET*        CLOUDY    28  12  52 S8        29.70F WCI  20
WAUKEGAN       CLOUDY    24  11  57 S14       29.65F WCI  12
6HR MIN TEMP:  19; 6HR MAX TEMP:  24;

DUPAGE AIRPORT CLOUDY    25  13  60 S14       29.66F WCI  13
6HR MIN TEMP:  20; 6HR MAX TEMP:  25;

WHEELING       CLOUDY    25  13  60 S12       29.69F WCI  14
6HR MIN TEMP:  22; 6HR MAX TEMP:  25;

KANKAKEE*      CLOUDY    26  10  49 S9        29.74F WCI  17
MORRIS*        CLOUDY    26  11  52 S13       29.68F WCI  15
LEWIS AIRPORT* CLOUDY    25  12  58 S10       29.69F WCI  15
NORTHERLY ISL    N/A     24  10  55 S8          N/A  WCI  15
$$

WIZ051-052-058>065-066-070>072-131300-
SOUTHEAST WISCONSIN

CITY           SKY/WX    TMP DP  RH WIND       PRES   REMARKS
MILWAUKEE      LGT SNOW  24  12  60 S9        29.62F WCI  14
6HR MIN TEMP:  20; 6HR MAX TEMP:  24; 6HR PCP: TRACE;

KENOSHA*       FLURRIES  24  10  55 S12G22    29.63F WCI  13
RACINE*        CLOUDY    25   9  50 S12       29.65F WCI  14
BURLINGTON       N/A    N/A N/A N/A MISG        N/A
WAUKESHA       LGT SNOW  19  12  73 SE9       29.60F VSB 1   WCI   9
WEST BEND      FLURRIES  21  12  68 S8        29.58F WCI  12
$$

INZ001>003-010>013-019-020-131300-
NORTHWEST INDIANA

CITY           SKY/WX    TMP DP  RH WIND       PRES   REMARKS
GARY*          CLOUDY    27   9  46 S9        29.74F WCI  17
MICHIGAN CITY* NOT AVBL
RENSSELAER*    NOT AVBL
VALPARAISO     CLOUDY    23  12  62 S8        29.76F WCI  14
$$

LMZ740>746-131300-
SOUTHERN LAKE MICHIGAN

STATION/POSITION TIME  SKY/WX   TEMP WIND        PRES    VSBY
                                AIR  DIR/SP/G
                 (UTC)          (F)  (DEG/KT/KT) (MB)    (MI)
HARRISON CRIB    1140            26  190/ 20/ 23   N/A
BURNHAM HARBOR   1200            25  170/  7/ 11   N/A
CALUMET HARBOR   1142            24  160/ 11/ 17 1006.1F
BURNS HARBOR     1140            23  170/  9/ 15 1008.1F
MICHIGAN CITY    1140            21  140/ 12/ 15   N/A
$$

ABBREVIATIONS USED IN REMARKS
   TC - TEMPERATURE IN CELSIUS
  WCI - WIND CHILL INDEX
   HX - HEAT INDEX
  VSB - VISIBILITY
$$




USA.gov is the U.S. government's official web portal to all federal, state and local government web resources and services.